DECAYED

SL-16 DEB, 22420 (Decayed)

Orbit data source: Space-Track

SL-16 DEB, 22420 was space debris in LEO originally from a launch on Fri, 25 Dec 1992 UTC launched from the Tyuratam Missile And Space Complex (TTMTR). Debris objects in space refer to the collection of defunct objects orbiting the Earth. Examples of debris include non-operational satellites, rocket bodies, and fragments generated from explosions, collisions, or faulty payload assembly.

Not visible in the next 10 days
Identifier
22420, 1992-093DM
Orbit
Decayed
Country
Flag of CISCIS
Related business
Manufacturer
Unknown
Mission
Decayed spacecraft
Bus & Motor
Unknown
Mass
Unknown
Launch date (UTC)
1992-12-25 (33 years ago)
Launch vehicle
Unknown
Launch site
Tyuratam Missile And Space Complex (TTMTR)
Object type
Payload
Rocket body
Debris
Shape & HBR
Unknown shape, 0.1 m
Radar Cross Section
Small (<0.1 m²)

Expand to show TLE details & history
Last TLE update: 6 months ago

TLE from 6 months ago
0 SL-16 DEB
1 22420U 92093DM  25211.49135450  .14763549  37123-5  18531-2 0  9995
2 22420  70.9516 185.0257 0012499 224.5169 135.5064 16.35562912719700
Epoch: 2025-07-30T11:47Z
TLE epoch observation values (Epoch: 2025-07-30T11:47:33.028Z)
Latitude
-0.00005°
Longitude
59.76825°
Altitude
186.124 km
Speed
7.791 km/s
True Right ascension
12h 20m 06s
True Declination
0° 00' 00"
Sunlit
Object was in daylight at epoch
Visualization orbit readout
Latitude
Unknown
Longitude
Unknown
Altitude
Unknown
Speed
Unknown
Apparent Right ascension
Unknown
Apparent Declination
Unknown
Sunlit
N/A
Visualization observer readout
Local Sidereal Time
10:32:49
Azimuth
Unknown
Elevation
Unknown
Doppler factor
Unknown
Orbital elements
Apogee altitude
183.543 km
Perigee altitude
167.16 km
Semi-major axis
6,553.488 km
Eccentricity
0.00125
Inclination
70.9516°
RAAN
185.0257°
Arg. of periapsis
224.5169°
True anomaly
135.60667°
Mean anomaly
135.5064°
Eccentric anomaly
135.55654°
Mean motion
4.09105 °/min
Orbital period
88 mins
BSTAR
0.0018531
Loading maneuver chart data...
Computing Atmospheric mass density...
Loading historical data...
Loading historical data...
Loading historical data...
Loading historical data...
Loading historical data...
Loading historical data...
Loading historical data...

Documentation

Showing up to 5 results
|